Aulvik National Park, Northwest Territories

7:02 AM MST on February 22, 2017 (GMT -0700)
Aulavik National Park

Weather History for CWSQ - February, 2014

Change the Weather History Date:

Wednesday, February 26, 2014

  Actual Average Record
Temperature  
Mean Temperature -42 °F -  
Max Temperature -38 °F - - ()
Min Temperature -47 °F - - ()
Degree Days  
Heating Degree Days 108    
Moisture  
Dew Point -54 °F    
Average Humidity 57    
Maximum Humidity 63    
Minimum Humidity 36    
Precipitation  
Precipitation 0.01 in - - ()
Sea Level Pressure  
Sea Level Pressure 30.58 in    
Wind  
Wind Speed 2 mph ()    
Max Wind Speed 5 mph    
Max Gust Speed -    
T = Trace of Precipitation, MM = Missing Value Source: Averaged Metar Reports

Daily Weather History Graph

Daily Weather History Graph

Search for Another Location

Airport or City:

Trip Planner

Search our weather history database for the weather conditions in past years. The results will help you decide how hot, cold, wet, or windy it might be!

Date:

Astronomy

Feb. 26, 2014 Rise Set
Actual Time 9:06 AM MST 5:20 PM MST
Civil Twilight 7:46 AM MST 6:41 PM MST
Nautical Twilight 6:18 AM MST 8:10 PM MST
Astronomical Twilight 4:42 AM MST 9:47 PM MST
Moon 9:27 AM MST (2/26) 12:21 PM MST (2/26)
Length of Visible Light 10h 55m
Length of Day
8h 14m
Waning Crescent, 9% of the Moon is Illuminated
Feb 26
Waning Crescent
Mar 1
New
Mar 8
First Quarter
Mar 16
Full
Mar 23
Last Quarter

Hourly Weather History & Observations

Time (MST) Temp. Windchill Dew Point Humidity Pressure Visibility Wind Dir Wind Speed Gust Speed Precip Events Conditions
12:00 AM -44.0 °F -61.2 °F -52.1 °F 63% 30.59 in - SSE 4.6 mph - N/A   Unknown
2:00 AM -43.2 °F - -51.7 °F 62% 30.58 in - SSE 1.2 mph - N/A   Unknown
4:00 AM -45.2 °F -59.5 °F -53.7 °F 62% 30.57 in - SSE 3.5 mph - N/A   Unknown
5:00 AM -46 °F - -55 °F 40% 30.56 in - SSE 4.6 mph - -  
5:00 AM -45.9 °F -63.5 °F -54.6 °F 61% 30.56 in - SSE 4.6 mph - N/A   Unknown
6:00 AM -45.0 °F - -53.1 °F 63% - - North - - N/A   Unknown
9:00 AM -47.0 °F - -55.8 °F 60% 30.51 in - South 2.3 mph - N/A   Unknown
10:00 AM -46.7 °F -64.4 °F -55.5 °F 60% 30.51 in - SSE 4.6 mph - N/A   Unknown
11:00 AM -45 °F - -54 °F 38% 30.51 in - SSW 1.2 mph - -  
11:00 AM -45.4 °F - -54.0 °F 61% 30.51 in - SSW 1.2 mph - 0.01 in   Unknown
12:00 PM -41.3 °F - -49.9 °F 62% 30.51 in - SW 1.2 mph - 0.01 in   Unknown
1:00 PM -45.0 °F -62.5 °F -54.0 °F 60% - - SSE 4.6 mph - N/A   Unknown
2:00 PM -45.0 °F - -54.0 °F 60% 30.56 in - SSE 2.3 mph - N/A   Unknown
3:00 PM -44.9 °F - -53.7 °F 60% - - Calm Calm - N/A   Unknown
4:00 PM -45.4 °F - -54.4 °F 60% 30.58 in - Calm Calm - N/A   Unknown
5:00 PM -44 °F - -53 °F 39% 30.60 in - Calm Calm - -  
5:00 PM -44.5 °F - -53.0 °F 62% 30.60 in - Calm Calm - N/A   Unknown
6:00 PM -45.4 °F - -53.9 °F 62% 30.61 in - Calm Calm - N/A   Unknown
8:00 PM -47.7 °F - -56.6 °F 60% 30.63 in - Calm Calm - N/A   Unknown
10:00 PM -47.7 °F - -56.6 °F 60% 30.67 in - SSE 2.3 mph - 0.01 in   Unknown
11:00 PM -47 °F - -56 °F 36% 30.67 in - Calm Calm - -  
11:00 PM -47.4 °F - -56.4 °F 59% 30.67 in - Calm Calm - N/A   Unknown